| time (UTC) | temp F | wind direction | speed knots | gust knots | rain 1hr in | rain 24hr in | rain mn in | humidity % | barometer mb |
| 20260906123010 | 70 | 300 | 3.5 | 5.2 | 0.00 | 0.00 | 0.00 | 95 | 1019.8 |
| 20260906122503 | 70 | 62 | 1.7 | 2.6 | 0.00 | 0.00 | 0.00 | 96 | 1019.6 |
| 20260906122000 | 70 | 78 | 0.9 | 4.3 | 0.00 | 0.00 | 0.00 | 96 | 1019.7 |
| 20260906121456 | 70 | 181 | 0.9 | 1.7 | 0.00 | 0.00 | 0.00 | 96 | 1019.9 |
| 20260906120952 | 70 | 72 | 1.7 | 1.7 | 0.00 | 0.00 | 0.00 | 96 | 1019.5 |
| 20260906120447 | 70 | 44 | 2.6 | 4.3 | 0.00 | 0.00 | 0.00 | 96 | 1019.2 |
| 20260906115943 | 70 | 85 | 0.9 | 1.7 | 0.00 | 0.00 | 0.00 | 96 | 1019.1 |
| 20260906115439 | 70 | 164 | 0.0 | 1.7 | 0.00 | 0.00 | 0.00 | 96 | 1019.3 |
| 20260906114938 | 70 | 37 | 2.6 | 5.2 | 0.00 | 0.00 | 0.00 | 96 | 1019.0 |
| 20260906114433 | 70 | 131 | 1.7 | 2.6 | 0.00 | 0.00 | 0.00 | 96 | 1019.1 |
| 20260906113929 | 70 | 354 | 1.7 | 4.3 | 0.00 | 0.00 | 0.00 | 95 | 1019.0 |
| 20260906113427 | 71 | 13 | 3.5 | 4.3 | 0.00 | 0.00 | 0.00 | 95 | 1018.9 |
| 20260906112923 | 71 | 95 | 2.6 | 2.6 | 0.00 | 0.00 | 0.00 | 95 | 1018.8 |
| 20260906112418 | 71 | 141 | 0.9 | 4.3 | 0.00 | 0.00 | 0.00 | 95 | 1018.8 |
| 20260906111914 | 71 | 101 | 2.6 | 4.3 | 0.00 | 0.00 | 0.00 | 95 | 1018.7 |
| 20260906111413 | 71 | 196 | 1.7 | 5.2 | 0.00 | 0.00 | 0.00 | 95 | 1018.7 |
| 20260906110908 | 71 | 121 | 0.0 | 2.6 | 0.00 | 0.00 | 0.00 | 95 | 1018.4 |
| 20260906110403 | 71 | 198 | 2.6 | 5.2 | 0.00 | 0.00 | 0.00 | 95 | 1018.7 |
| 20260906105903 | 71 | 222 | 1.7 | 5.2 | 0.00 | 0.00 | 0.00 | 95 | 1018.4 |
| 20260906105359 | 71 | 164 | 1.7 | 1.7 | 0.00 | 0.00 | 0.00 | 95 | 1018.3 |
| 20260906104854 | 71 | 357 | 1.7 | 2.6 | 0.00 | 0.00 | 0.00 | 95 | 1018.4 |
| 20260906104353 | 71 | 171 | 0.9 | 6.1 | 0.00 | 0.00 | 0.00 | 95 | 1018.3 |
| 20260906103852 | 71 | 131 | 0.9 | 4.3 | 0.00 | 0.00 | 0.00 | 95 | 1018.2 |
| 20260906103350 | 72 | 148 | 2.6 | 6.1 | 0.00 | 0.00 | 0.00 | 95 | 1018.5 |
| 20260906102846 | 72 | 73 | 1.7 | 4.3 | 0.00 | 0.00 | 0.00 | 95 | 1018.2 |
| 20260906102345 | 72 | 121 | 1.7 | 1.7 | 0.00 | 0.00 | 0.00 | 96 | 1018.2 |
| 20260906101840 | 72 | 120 | 1.7 | 6.1 | 0.00 | 0.00 | 0.00 | 96 | 1017.8 |
| 20260906101335 | 72 | 56 | 4.3 | 5.2 | 0.00 | 0.00 | 0.00 | 96 | 1018.2 |
| 20260906100831 | 72 | 191 | 0.9 | 4.3 | 0.00 | 0.00 | 0.00 | 96 | 1018.1 |
| 20260906100330 | 72 | 359 | 2.6 | 4.3 | 0.00 | 0.00 | 0.00 | 96 | 1018.0 |
| 20260906095825 | 72 | 24 | 1.7 | 6.1 | 0.00 | 0.00 | 0.00 | 96 | 1018.1 |
| 20260906095321 | 72 | 339 | 4.3 | 5.2 | 0.00 | 0.00 | 0.00 | 96 | 1018.1 |
| 20260906094820 | 72 | 191 | 0.9 | 6.1 | 0.00 | 0.00 | 0.00 | 96 | 1017.9 |
| 20260906094315 | 72 | 209 | 0.9 | 4.3 | 0.00 | 0.00 | 0.00 | 96 | 1017.9 |
| 20260906093812 | 72 | 148 | 0.0 | 1.7 | 0.00 | 0.00 | 0.00 | 96 | 1018.1 |
| 20260906093307 | 72 | 191 | 0.9 | 1.7 | 0.00 | 0.00 | 0.00 | 96 | 1017.8 |
| 20260906092801 | 72 | 53 | 2.6 | 5.2 | 0.00 | 0.00 | 0.00 | 95 | 1017.9 |
| 20260906092256 | 72 | 198 | 0.9 | 0.9 | 0.00 | 0.00 | 0.00 | 95 | 1017.9 |
| 20260906091752 | 72 | 3 | 0.9 | 1.7 | 0.00 | 0.00 | 0.00 | 95 | 1017.8 |
| 20260906091248 | 72 | 81 | 1.7 | 4.3 | 0.00 | 0.00 | 0.00 | 95 | 1017.9 |
| 20260906090744 | 72 | 150 | 0.9 | 2.6 | 0.00 | 0.00 | 0.00 | 95 | 1018.0 |
| 20260906090243 | 72 | 33 | 3.5 | 5.2 | 0.00 | 0.00 | 0.00 | 95 | 1017.9 |
| 20260906085742 | 72 | 117 | 2.6 | 2.6 | 0.00 | 0.00 | 0.00 | 95 | 1017.9 |
| 20260906085242 | 72 | 52 | 0.9 | 4.3 | 0.00 | 0.00 | 0.00 | 95 | 1018.0 |
| 20260906084736 | 72 | 65 | 2.6 | 4.3 | 0.00 | 0.00 | 0.00 | 95 | 1018.0 |
| 20260906084231 | 72 | 48 | 1.7 | 5.2 | 0.00 | 0.00 | 0.00 | 95 | 1017.9 |
| 20260906083726 | 72 | 104 | 1.7 | 4.3 | 0.00 | 0.00 | 0.00 | 95 | 1018.1 |
| 20260906083221 | 72 | 163 | 3.5 | 5.2 | 0.00 | 0.00 | 0.00 | 94 | 1018.0 |
| 20260906082716 | 72 | 202 | 1.7 | 2.6 | 0.00 | 0.00 | 0.00 | 94 | 1017.9 |
| 20260906082211 | 72 | 204 | 2.6 | 6.1 | 0.00 | 0.00 | 0.00 | 94 | 1018.0 |
| 20260906081707 | 72 | 69 | 2.6 | 4.3 | 0.00 | 0.00 | 0.00 | 94 | 1017.8 |
| 20260906081202 | 72 | 157 | 0.9 | 4.3 | 0.00 | 0.00 | 0.00 | 94 | 1018.2 |
| 20260906080659 | 72 | 349 | 3.5 | 5.2 | 0.00 | 0.00 | 0.00 | 94 | 1018.3 |
| 20260906080154 | 72 | 109 | 0.9 | 2.6 | 0.00 | 0.00 | 0.00 | 94 | 1018.2 |
| 20260906075654 | 72 | 198 | 0.9 | 1.7 | 0.00 | 0.00 | 0.00 | 94 | 1018.1 |
| 20260906075149 | 72 | 28 | 1.7 | 6.1 | 0.00 | 0.00 | 0.00 | 94 | 1018.1 |
| 20260906074644 | 72 | 19 | 0.9 | 1.7 | 0.00 | 0.00 | 0.00 | 94 | 1018.1 |
| 20260906074143 | 72 | 59 | 2.6 | 2.6 | 0.00 | 0.00 | 0.00 | 94 | 1018.2 |
| 20260906073638 | 72 | 268 | 0.0 | 2.6 | 0.00 | 0.00 | 0.00 | 93 | 1018.2 |
| 20260906073134 | 72 | 33 | 1.7 | 2.6 | 0.00 | 0.00 | 0.00 | 93 | 1018.0 |
| 20260906072628 | 72 | 211 | 0.9 | 2.6 | 0.00 | 0.00 | 0.00 | 93 | 1017.9 |
| 20260906072124 | 72 | 17 | 4.3 | 6.1 | 0.00 | 0.00 | 0.00 | 93 | 1017.9 |
| 20260906071621 | 71 | 77 | 1.7 | 4.3 | 0.00 | 0.00 | 0.00 | 93 | 1018.1 |
| 20260906071115 | 71 | 169 | 0.9 | 5.2 | 0.00 | 0.00 | 0.00 | 93 | 1018.0 |
| 20260906070612 | 71 | 55 | 2.6 | 7.8 | 0.00 | 0.00 | 0.00 | 93 | 1018.0 |
| 20260906070107 | 71 | 69 | 1.7 | 4.3 | 0.00 | 0.00 | 0.00 | 93 | 1018.2 |
| 20260906065606 | 71 | 37 | 1.7 | 4.3 | 0.00 | 0.00 | 0.00 | 93 | 1018.3 |
| 20260906065102 | 71 | 51 | 2.6 | 5.2 | 0.00 | 0.00 | 0.00 | 93 | 1018.1 |
| 20260906064558 | 71 | 82 | 5.2 | 6.1 | 0.00 | 0.00 | 0.00 | 93 | 1018.4 |
| 20260906064052 | 71 | 181 | 1.7 | 4.3 | 0.00 | 0.00 | 0.00 | 92 | 1018.1 |
| 20260906063547 | 71 | 83 | 1.7 | 4.3 | 0.00 | 0.00 | 0.00 | 93 | 1018.3 |
| 20260906063043 | 71 | 173 | 0.9 | 0.9 | 0.00 | 0.00 | 0.00 | 93 | 1018.4 |
| 20260906062539 | 71 | 75 | 0.9 | 2.6 | 0.00 | 0.00 | 0.00 | 93 | 1018.3 |
| 20260906062032 | 71 | 48 | 3.5 | 4.3 | 0.00 | 0.00 | 0.00 | 93 | 1018.2 |
| 20260906061529 | 71 | 80 | 2.6 | 4.3 | 0.00 | 0.00 | 0.00 | 93 | 1018.3 |
| 20260906061028 | 71 | 126 | 1.7 | 2.6 | 0.00 | 0.00 | 0.00 | 93 | 1018.5 |
| 20260906060525 | 71 | 105 | 2.6 | 4.3 | 0.00 | 0.00 | 0.00 | 93 | 1018.4 |
| 20260906060022 | 71 | 56 | 2.6 | 4.3 | 0.00 | 0.00 | 0.00 | 93 | 1018.5 |
| 20260906055517 | 71 | 127 | 1.7 | 2.6 | 0.00 | 0.00 | 0.00 | 93 | 1018.4 |
| 20260906055013 | 71 | 39 | 2.6 | 2.6 | 0.00 | 0.00 | 0.00 | 93 | 1018.5 |
| 20260906054507 | 71 | 217 | 0.0 | 2.6 | 0.00 | 0.00 | 0.00 | 93 | 1018.4 |
| 20260906054002 | 71 | 210 | 2.6 | 5.2 | 0.00 | 0.00 | 0.00 | 93 | 1018.2 |
| 20260906053459 | 71 | 187 | 0.9 | 2.6 | 0.00 | 0.00 | 0.00 | 93 | 1018.5 |
| 20260906052954 | 71 | 45 | 1.7 | 7.0 | 0.00 | 0.00 | 0.00 | 93 | 1018.2 |
| 20260906052450 | 71 | 23 | 1.7 | 4.3 | 0.00 | 0.00 | 0.00 | 92 | 1018.4 |
| 20260906051947 | 71 | 354 | 2.6 | 5.2 | 0.00 | 0.00 | 0.00 | 93 | 1018.2 |
| 20260906051442 | 71 | 80 | 1.7 | 4.3 | 0.00 | 0.00 | 0.00 | 93 | 1018.2 |
| 20260906050937 | 71 | 349 | 2.6 | 7.8 | 0.00 | 0.00 | 0.00 | 93 | 1018.2 |
| 20260906050437 | 71 | 21 | 1.7 | 8.7 | 0.00 | 0.00 | 0.00 | 92 | 1018.1 |
| 20260906045936 | 71 | 21 | 5.2 | 7.0 | 0.00 | 0.00 | 0.00 | 93 | 1017.9 |
| 20260906045435 | 71 | 133 | 2.6 | 4.3 | 0.00 | 0.00 | 0.00 | 93 | 1017.9 |
| 20260906044931 | 71 | 219 | 2.6 | 5.2 | 0.00 | 0.00 | 0.00 | 94 | 1017.8 |
| 20260906044426 | 71 | 176 | 5.2 | 7.0 | 0.00 | 0.00 | 0.00 | 94 | 1017.8 |
| 20260906043921 | 71 | 45 | 3.5 | 6.1 | 0.00 | 0.00 | 0.00 | 94 | 1017.6 |
| 20260906043417 | 71 | 155 | 2.6 | 5.2 | 0.00 | 0.00 | 0.00 | 94 | 1017.5 |
| 20260906042913 | 71 | 82 | 0.0 | 5.2 | 0.00 | 0.00 | 0.00 | 95 | 1017.4 |
| 20260906042412 | 71 | 77 | 1.7 | 5.2 | 0.00 | 0.00 | 0.00 | 95 | 1017.5 |
| 20260906041907 | 71 | 64 | 1.7 | 6.1 | 0.00 | 0.00 | 0.00 | 94 | 1017.5 |
| 20260906041403 | 72 | 31 | 1.7 | 4.3 | 0.00 | 0.00 | 0.00 | 94 | 1017.6 |
| 20260906040857 | 72 | 122 | 0.0 | 1.7 | 0.00 | 0.00 | 0.00 | 94 | 1017.6 |
| 20260906040352 | 72 | 76 | 1.7 | 4.3 | 0.00 | 0.00 | 0.00 | 94 | 1017.4 |
| 20260906035847 | 72 | 162 | 0.0 | 4.3 | 0.00 | 0.00 | 0.00 | 94 | 1017.5 |
| 20260906035343 | 73 | 46 | 2.6 | 2.6 | 0.00 | 0.00 | 0.00 | 94 | 1017.5 |
| 20260906034838 | 73 | 169 | 0.9 | 1.7 | 0.00 | 0.00 | 0.00 | 94 | 1017.2 |
| 20260906034333 | 73 | 131 | 0.9 | 1.7 | 0.00 | 0.00 | 0.00 | 93 | 1017.2 |
| 20260906033829 | 73 | 97 | 0.9 | 2.6 | 0.00 | 0.00 | 0.00 | 93 | 1017.4 |
| 20260906033328 | 73 | 191 | 0.9 | 2.6 | 0.00 | 0.00 | 0.00 | 92 | 1017.3 |
| 20260906032824 | 74 | 175 | 0.0 | 0.9 | 0.00 | 0.00 | 0.00 | 92 | 1017.3 |
| 20260906032320 | 74 | 37 | 0.9 | 2.6 | 0.00 | 0.00 | 0.00 | 92 | 1017.3 |
| 20260906031815 | 74 | 16 | 0.9 | 2.6 | 0.00 | 0.00 | 0.00 | 92 | 1017.4 |
| 20260906031311 | 74 | 216 | 0.0 | 0.9 | 0.00 | 0.00 | 0.00 | 91 | 1017.1 |
| 20260906030810 | 74 | 42 | 3.5 | 5.2 | 0.00 | 0.00 | 0.00 | 91 | 1017.2 |
| 20260906030306 | 74 | 36 | 1.7 | 1.7 | 0.00 | 0.00 | 0.00 | 91 | 1016.9 |
| 20260906025805 | 75 | 180 | 0.0 | 4.3 | 0.00 | 0.00 | 0.00 | 91 | 1017.3 |
| 20260906025259 | 75 | 28 | 0.9 | 4.3 | 0.00 | 0.00 | 0.00 | 91 | 1017.2 |
| 20260906024758 | 75 | 21 | 3.5 | 5.2 | 0.00 | 0.00 | 0.00 | 91 | 1017.1 |
| 20260906024257 | 75 | 62 | 2.6 | 4.3 | 0.00 | 0.00 | 0.00 | 90 | 1017.2 |
| 20260906023753 | 75 | 104 | 0.9 | 1.7 | 0.00 | 0.00 | 0.00 | 90 | 1017.1 |
| 20260906023248 | 75 | 40 | 3.5 | 6.1 | 0.00 | 0.00 | 0.00 | 90 | 1017.0 |
| 20260906022744 | 76 | 13 | 2.6 | 6.1 | 0.00 | 0.00 | 0.00 | 90 | 1017.1 |
| 20260906022239 | 76 | 59 | 0.9 | 2.6 | 0.00 | 0.00 | 0.00 | 90 | 1016.7 |
| 20260906021736 | 76 | 44 | 1.7 | 4.3 | 0.00 | 0.00 | 0.00 | 89 | 1016.9 |
| 20260906021234 | 77 | 53 | 2.6 | 6.1 | 0.00 | 0.00 | 0.00 | 89 | 1016.7 |
| 20260906020729 | 77 | 73 | 2.6 | 6.1 | 0.00 | 0.00 | 0.00 | 89 | 1016.9 |
| 20260906020223 | 77 | 23 | 2.6 | 4.3 | 0.00 | 0.00 | 0.00 | 89 | 1016.7 |
| 20260906015718 | 77 | 62 | 1.7 | 2.6 | 0.00 | 0.00 | 0.00 | 88 | 1016.6 |
| 20260906015216 | 77 | 166 | 1.7 | 5.2 | 0.00 | 0.00 | 0.00 | 88 | 1016.6 |
| 20260906014711 | 78 | 355 | 3.5 | 4.3 | 0.00 | 0.00 | 0.00 | 88 | 1016.4 |
| 20260906014207 | 78 | 98 | 0.9 | 11.3 | 0.00 | 0.00 | 0.00 | 88 | 1016.4 |
| 20260906013703 | 78 | 116 | 1.7 | 4.3 | 0.00 | 0.00 | 0.00 | 87 | 1016.4 |
| 20260906013157 | 79 | 170 | 1.7 | 2.6 | 0.00 | 0.00 | 0.00 | 87 | 1016.4 |
| 20260906012657 | 79 | 60 | 1.7 | 5.2 | 0.00 | 0.00 | 0.00 | 87 | 1016.2 |
| 20260906012152 | 79 | 133 | 2.6 | 6.1 | 0.00 | 0.00 | 0.00 | 86 | 1016.3 |
| 20260906011648 | 80 | 40 | 3.5 | 7.0 | 0.00 | 0.00 | 0.00 | 85 | 1016.0 |
| 20260906011142 | 80 | 357 | 2.6 | 5.2 | 0.00 | 0.00 | 0.00 | 85 | 1016.3 |
| 20260906010638 | 80 | 169 | 2.6 | 4.3 | 0.00 | 0.00 | 0.00 | 85 | 1016.1 |
| 20260906010134 | 81 | 10 | 4.3 | 7.8 | 0.00 | 0.00 | 0.00 | 84 | 1016.2 |
| 20260906005633 | 81 | 34 | 4.3 | 6.1 | 0.00 | 0.00 | 0.00 | 83 | 1015.9 |
| 20260906005133 | 81 | 68 | 3.5 | 5.2 | 0.00 | 0.00 | 0.00 | 83 | 1015.9 |
| 20260906004632 | 81 | 2 | 2.6 | 14.8 | 0.00 | 0.00 | 0.00 | 83 | 1015.6 |
| 20260906004127 | 82 | 92 | 3.5 | 8.7 | 0.00 | 0.00 | 0.00 | 82 | 1015.7 |
| 20260906003622 | 82 | 49 | 3.5 | 7.0 | 0.00 | 0.00 | 0.00 | 82 | 1015.7 |
| 20260906003118 | 82 | 54 | 2.6 | 8.7 | 0.00 | 0.00 | 0.00 | 82 | 1015.6 |
| 20260906002613 | 83 | 67 | 4.3 | 7.8 | 0.00 | 0.00 | 0.00 | 82 | 1015.7 |
| 20260906002107 | 83 | 307 | 4.3 | 9.6 | 0.00 | 0.00 | 0.00 | 81 | 1015.7 |
| 20260906001602 | 84 | 245 | 0.9 | 5.2 | 0.00 | 0.00 | 0.00 | 81 | 1015.6 |
| 20260906001057 | 84 | 147 | 3.5 | 8.7 | 0.00 | 0.00 | 0.00 | 80 | 1015.6 |
| 20260906000553 | 85 | 359 | 3.5 | 7.0 | 0.00 | 0.00 | 0.00 | 79 | 1015.7 |
| 20260906000048 | 85 | 278 | 4.3 | 6.1 | 0.00 | 0.00 | 0.00 | 78 | 1015.2 |
| 20260905235547 | 85 | 347 | 7.0 | 9.6 | 0.00 | 0.00 | 0.00 | 78 | 1015.4 |
| 20260905235042 | 86 | 19 | 2.6 | 7.8 | 0.00 | 0.00 | 0.00 | 78 | 1015.2 |
| 20260905234537 | 86 | 122 | 3.5 | 8.7 | 0.00 | 0.00 | 0.00 | 77 | 1015.2 |
| 20260905234033 | 86 | 3 | 1.7 | 7.0 | 0.00 | 0.00 | 0.00 | 77 | 1015.4 |
| 20260905233533 | 87 | 329 | 3.5 | 6.1 | 0.00 | 0.00 | 0.00 | 77 | 1015.0 |
| 20260905233033 | 87 | 175 | 2.6 | 8.7 | 0.00 | 0.00 | 0.00 | 76 | 1015.3 |
| 20260905232528 | 88 | 326 | 3.5 | 11.3 | 0.00 | 0.00 | 0.00 | 74 | 1015.4 |
| 20260905232024 | 88 | 349 | 2.6 | 6.1 | 0.00 | 0.00 | 0.00 | 74 | 1015.2 |
| 20260905231519 | 88 | 58 | 3.5 | 7.8 | 0.00 | 0.00 | 0.00 | 75 | 1015.1 |
| 20260905231015 | 88 | 21 | 3.5 | 6.1 | 0.00 | 0.00 | 0.00 | 74 | 1015.1 |
| 20260905230514 | 89 | 43 | 1.7 | 4.3 | 0.00 | 0.00 | 0.00 | 74 | 1014.9 |
| 20260905230013 | 89 | 328 | 1.7 | 6.1 | 0.00 | 0.00 | 0.00 | 74 | 1015.1 |
| 20260905225507 | 89 | 21 | 4.3 | 6.1 | 0.00 | 0.00 | 0.00 | 72 | 1015.2 |
| 20260905225003 | 89 | 74 | 7.0 | 7.8 | 0.00 | 0.00 | 0.00 | 72 | 1015.1 |
| 20260905224458 | 89 | 11 | 2.6 | 7.0 | 0.00 | 0.00 | 0.00 | 72 | 1015.1 |
| 20260905223956 | 89 | 72 | 4.3 | 7.8 | 0.00 | 0.00 | 0.00 | 72 | 1015.1 |
| 20260905223455 | 89 | 219 | 3.5 | 7.0 | 0.00 | 0.00 | 0.00 | 72 | 1015.1 |
| 20260905222949 | 90 | 137 | 1.7 | 7.0 | 0.00 | 0.00 | 0.00 | 71 | 1015.1 |
| 20260905222444 | 90 | 343 | 2.6 | 2.6 | 0.00 | 0.00 | 0.00 | 71 | 1015.0 |
| 20260905221939 | 91 | 56 | 2.6 | 4.3 | 0.00 | 0.00 | 0.00 | 70 | 1014.9 |
| 20260905221436 | 91 | 228 | 2.6 | 8.7 | 0.00 | 0.00 | 0.00 | 69 | 1014.9 |
| 20260905220932 | 91 | 1 | 3.5 | 7.0 | 0.00 | 0.00 | 0.00 | 69 | 1014.9 |
| 20260905220428 | 91 | 327 | 3.5 | 7.0 | 0.00 | 0.00 | 0.00 | 69 | 1015.2 |
| 20260905215926 | 91 | 71 | 4.3 | 7.0 | 0.00 | 0.00 | 0.00 | 68 | 1015.0 |
| 20260905215422 | 92 | 84 | 3.5 | 5.2 | 0.00 | 0.00 | 0.00 | 69 | 1015.0 |
| 20260905214919 | 92 | 213 | 3.5 | 5.2 | 0.00 | 0.00 | 0.00 | 68 | 1015.0 |
| 20260905214414 | 90 | 314 | 1.7 | 5.2 | 0.00 | 0.00 | 0.00 | 70 | 1015.0 |
| 20260905213914 | 91 | 49 | 5.2 | 7.0 | 0.00 | 0.00 | 0.00 | 70 | 1015.0 |
| 20260905213410 | 92 | 94 | 3.5 | 7.0 | 0.00 | 0.00 | 0.00 | 69 | 1014.9 |
| 20260905212905 | 91 | 239 | 0.9 | 4.3 | 0.00 | 0.00 | 0.00 | 70 | 1015.0 |
| 20260905212401 | 90 | 196 | 0.0 | 6.1 | 0.00 | 0.00 | 0.00 | 71 | 1014.9 |
| 20260905211859 | 91 | 0 | 2.6 | 9.6 | 0.00 | 0.00 | 0.00 | 70 | 1014.8 |
| 20260905211355 | 91 | 284 | 3.5 | 4.3 | 0.00 | 0.00 | 0.00 | 69 | 1014.9 |
| 20260905210851 | 91 | 266 | 3.5 | 6.1 | 0.00 | 0.00 | 0.00 | 69 | 1015.0 |
| 20260905210351 | 92 | 163 | 0.9 | 2.6 | 0.00 | 0.00 | 0.00 | 68 | 1014.9 |
| 20260905205850 | 91 | 10 | 5.2 | 6.1 | 0.00 | 0.00 | 0.00 | 71 | 1014.9 |
| 20260905205345 | 93 | 50 | 2.6 | 6.1 | 0.00 | 0.00 | 0.00 | 68 | 1015.1 |
| 20260905204844 | 92 | 111 | 2.6 | 5.2 | 0.00 | 0.00 | 0.00 | 70 | 1015.1 |
| 20260905204341 | 93 | 313 | 2.6 | 4.3 | 0.00 | 0.00 | 0.00 | 69 | 1015.3 |
| 20260905203839 | 93 | 152 | 1.7 | 7.0 | 0.00 | 0.00 | 0.00 | 69 | 1015.1 |
| 20260905203335 | 93 | 182 | 0.9 | 4.3 | 0.00 | 0.00 | 0.00 | 68 | 1015.2 |
| 20260905202831 | 93 | 0 | 3.5 | 7.8 | 0.00 | 0.00 | 0.00 | 68 | 1015.1 |
| 20260905202325 | 92 | 73 | 0.9 | 6.1 | 0.00 | 0.00 | 0.00 | 69 | 1015.2 |
| 20260905201821 | 93 | 336 | 2.6 | 6.1 | 0.00 | 0.00 | 0.00 | 68 | 1015.2 |
| 20260905201316 | 93 | 248 | 4.3 | 5.2 | 0.00 | 0.00 | 0.00 | 67 | 1015.4 |
| 20260905200810 | 92 | 355 | 0.9 | 4.3 | 0.00 | 0.00 | 0.00 | 69 | 1015.2 |
| 20260905200307 | 94 | 328 | 1.7 | 5.2 | 0.00 | 0.00 | 0.00 | 69 | 1015.3 |
| 20260905195804 | 95 | 56 | 2.6 | 5.2 | 0.00 | 0.00 | 0.00 | 67 | 1015.2 |
| 20260905195259 | 93 | 310 | 0.9 | 4.3 | 0.00 | 0.00 | 0.00 | 68 | 1015.2 |
| 20260905194755 | 92 | 340 | 1.7 | 4.3 | 0.00 | 0.00 | 0.00 | 69 | 1015.2 |
| 20260905194254 | 92 | 21 | 2.6 | 7.0 | 0.00 | 0.00 | 0.00 | 69 | 1015.2 |
| 20260905193748 | 91 | 87 | 1.7 | 6.1 | 0.00 | 0.00 | 0.00 | 72 | 1015.4 |
| 20260905193243 | 91 | 269 | 5.2 | 7.8 | 0.00 | 0.00 | 0.00 | 72 | 1015.2 |
| 20260905192739 | 92 | 0 | 2.6 | 4.3 | 0.00 | 0.00 | 0.00 | 70 | 1015.4 |
| 20260905192235 | 95 | 7 | 3.5 | 7.8 | 0.00 | 0.00 | 0.00 | 68 | 1015.4 |
| 20260905191734 | 95 | 24 | 3.5 | 4.3 | 0.00 | 0.00 | 0.00 | 67 | 1015.4 |
| 20260905191232 | 95 | 317 | 1.7 | 2.6 | 0.00 | 0.00 | 0.00 | 66 | 1015.4 |
| 20260905190731 | 91 | 168 | 0.9 | 4.3 | 0.00 | 0.00 | 0.00 | 72 | 1015.4 |
| 20260905190230 | 92 | 287 | 1.7 | 4.3 | 0.00 | 0.00 | 0.00 | 71 | 1015.5 |
| 20260905185730 | 92 | 317 | 1.7 | 4.3 | 0.00 | 0.00 | 0.00 | 70 | 1015.5 |
| 20260905185225 | 95 | 93 | 3.5 | 5.2 | 0.00 | 0.00 | 0.00 | 67 | 1015.4 |
| 20260905184719 | 93 | 343 | 1.7 | 5.2 | 0.00 | 0.00 | 0.00 | 68 | 1015.6 |
| 20260905184218 | 93 | 130 | 1.7 | 5.2 | 0.00 | 0.00 | 0.00 | 70 | 1015.8 |
| 20260905183712 | 93 | 332 | 2.6 | 2.6 | 0.00 | 0.00 | 0.00 | 68 | 1015.7 |
| 20260905183207 | 94 | 81 | 2.6 | 6.1 | 0.00 | 0.00 | 0.00 | 69 | 1015.7 |
| 20260905182707 | 93 | 340 | 2.6 | 5.2 | 0.00 | 0.00 | 0.00 | 68 | 1015.6 |
| 20260905182207 | 94 | 228 | 2.6 | 6.1 | 0.00 | 0.00 | 0.00 | 68 | 1015.8 |
| 20260905181702 | 93 | 209 | 0.9 | 6.1 | 0.00 | 0.00 | 0.00 | 68 | 1015.8 |
| 20260905181201 | 94 | 67 | 2.6 | 6.1 | 0.00 | 0.00 | 0.00 | 66 | 1015.9 |
| 20260905180655 | 93 | 320 | 5.2 | 7.0 | 0.00 | 0.00 | 0.00 | 68 | 1015.9 |
| 20260905180151 | 93 | 254 | 2.6 | 6.1 | 0.00 | 0.00 | 0.00 | 67 | 1015.9 |
| 20260905175650 | 94 | 6 | 2.6 | 7.0 | 0.00 | 0.00 | 0.00 | 67 | 1015.8 |
| 20260905175146 | 94 | 56 | 1.7 | 7.0 | 0.00 | 0.00 | 0.00 | 67 | 1015.9 |
| 20260905174641 | 94 | 313 | 2.6 | 5.2 | 0.00 | 0.00 | 0.00 | 66 | 1016.0 |
| 20260905174136 | 94 | 45 | 1.7 | 5.2 | 0.00 | 0.00 | 0.00 | 67 | 1015.9 |
| 20260905173632 | 93 | 13 | 1.7 | 2.6 | 0.00 | 0.00 | 0.00 | 69 | 1016.0 |
| 20260905173128 | 93 | 143 | 0.9 | 4.3 | 0.00 | 0.00 | 0.00 | 68 | 1016.1 |
| 20260905172627 | 93 | 344 | 0.9 | 1.7 | 0.00 | 0.00 | 0.00 | 68 | 1016.1 |
| 20260905172122 | 94 | 43 | 2.6 | 4.3 | 0.00 | 0.00 | 0.00 | 67 | 1015.9 |
| 20260905171618 | 94 | 316 | 3.5 | 6.1 | 0.00 | 0.00 | 0.00 | 67 | 1016.1 |
| 20260905171114 | 93 | 116 | 2.6 | 4.3 | 0.00 | 0.00 | 0.00 | 67 | 1015.9 |
| 20260905170610 | 92 | 308 | 4.3 | 6.1 | 0.00 | 0.00 | 0.00 | 67 | 1016.1 |
| 20260905170105 | 92 | 141 | 2.6 | 5.2 | 0.00 | 0.00 | 0.00 | 68 | 1016.2 |
| 20260905165559 | 92 | 41 | 4.3 | 7.0 | 0.00 | 0.00 | 0.00 | 68 | 1016.1 |
| 20260905165055 | 92 | 86 | 3.5 | 4.3 | 0.00 | 0.00 | 0.00 | 68 | 1016.2 |
| 20260905164550 | 92 | 187 | 1.7 | 2.6 | 0.00 | 0.00 | 0.00 | 66 | 1016.2 |
| 20260905164044 | 92 | 12 | 3.5 | 5.2 | 0.00 | 0.00 | 0.00 | 67 | 1016.6 |
| 20260905163540 | 93 | 30 | 0.9 | 0.9 | 0.00 | 0.00 | 0.00 | 67 | 1016.4 |
| 20260905163036 | 93 | 141 | 0.9 | 1.7 | 0.00 | 0.00 | 0.00 | 67 | 1016.4 |
| 20260905162532 | 91 | 268 | 0.9 | 2.6 | 0.00 | 0.00 | 0.00 | 68 | 1016.4 |
| 20260905162027 | 92 | 57 | 4.3 | 6.1 | 0.00 | 0.00 | 0.00 | 67 | 1016.2 |
| 20260905161526 | 93 | 209 | 1.7 | 4.3 | 0.00 | 0.00 | 0.00 | 67 | 1016.5 |
| 20260905161024 | 93 | 87 | 1.7 | 2.6 | 0.00 | 0.00 | 0.00 | 65 | 1016.1 |
| 20260905160517 | 92 | 274 | 2.6 | 5.2 | 0.00 | 0.00 | 0.00 | 66 | 1016.3 |
| 20260905160018 | 93 | 85 | 2.6 | 6.1 | 0.00 | 0.00 | 0.00 | 65 | 1016.2 |
| 20260905155518 | 93 | 236 | 2.6 | 4.3 | 0.00 | 0.00 | 0.00 | 64 | 1016.1 |
| 20260905155016 | 92 | 290 | 2.6 | 4.3 | 0.00 | 0.00 | 0.00 | 65 | 1016.2 |
| 20260905154511 | 91 | 294 | 2.6 | 7.0 | 0.00 | 0.00 | 0.00 | 67 | 1016.1 |
| 20260905154007 | 92 | 304 | 2.6 | 5.2 | 0.00 | 0.00 | 0.00 | 66 | 1016.1 |
| 20260905153503 | 91 | 158 | 0.9 | 5.2 | 0.00 | 0.00 | 0.00 | 68 | 1016.0 |
| 20260905153003 | 91 | 31 | 3.5 | 4.3 | 0.00 | 0.00 | 0.00 | 68 | 1016.2 |
| 20260905152502 | 91 | 54 | 3.5 | 4.3 | 0.00 | 0.00 | 0.00 | 68 | 1016.2 |
| 20260905151957 | 92 | 245 | 2.6 | 4.3 | 0.00 | 0.00 | 0.00 | 66 | 1016.1 |
| 20260905151452 | 91 | 217 | 2.6 | 5.2 | 0.00 | 0.00 | 0.00 | 67 | 1016.0 |
| 20260905150947 | 90 | 208 | 0.9 | 4.3 | 0.00 | 0.00 | 0.00 | 70 | 1016.0 |
| 20260905150442 | 90 | 84 | 3.5 | 7.0 | 0.00 | 0.00 | 0.00 | 70 | 1016.0 |
| 20260905145938 | 90 | 196 | 2.6 | 2.6 | 0.00 | 0.00 | 0.00 | 70 | 1016.1 |
| 20260905145433 | 90 | 238 | 2.6 | 4.3 | 0.00 | 0.00 | 0.00 | 69 | 1015.9 |
| 20260905144933 | 90 | 242 | 2.6 | 6.1 | 0.00 | 0.00 | 0.00 | 70 | 1015.9 |
| 20260905144428 | 89 | 236 | 2.6 | 4.3 | 0.00 | 0.00 | 0.00 | 70 | 1016.1 |
| 20260905143926 | 89 | 242 | 2.6 | 4.3 | 0.00 | 0.00 | 0.00 | 69 | 1015.9 |
| 20260905143421 | 89 | 213 | 1.7 | 6.1 | 0.00 | 0.00 | 0.00 | 70 | 1015.9 |
| 20260905142915 | 89 | 209 | 0.9 | 1.7 | 0.00 | 0.00 | 0.00 | 70 | 1015.9 |
| 20260905142414 | 89 | 240 | 0.9 | 1.7 | 0.00 | 0.00 | 0.00 | 70 | 1015.9 |
| 20260905141910 | 90 | 274 | 3.5 | 5.2 | 0.00 | 0.00 | 0.00 | 71 | 1015.7 |
| 20260905141405 | 88 | 186 | 0.0 | 1.7 | 0.00 | 0.00 | 0.00 | 73 | 1015.7 |
| 20260905140901 | 86 | 257 | 1.7 | 4.3 | 0.00 | 0.00 | 0.00 | 74 | 1015.7 |
| 20260905140355 | 86 | 189 | 0.9 | 2.6 | 0.00 | 0.00 | 0.00 | 76 | 1016.0 |
| 20260905135854 | 85 | 268 | 2.6 | 5.2 | 0.00 | 0.00 | 0.00 | 77 | 1015.9 |
| 20260905135350 | 85 | 296 | 2.6 | 4.3 | 0.00 | 0.00 | 0.00 | 77 | 1015.8 |
| 20260905134846 | 84 | 205 | 0.9 | 2.6 | 0.00 | 0.00 | 0.00 | 79 | 1016.1 |
| 20260905134344 | 84 | 253 | 2.6 | 2.6 | 0.00 | 0.00 | 0.00 | 79 | 1015.9 |
| 20260905133838 | 84 | 269 | 1.7 | 4.3 | 0.00 | 0.00 | 0.00 | 80 | 1016.3 |
| 20260905133333 | 83 | 275 | 1.7 | 4.3 | 0.00 | 0.00 | 0.00 | 83 | 1016.0 |
| 20260905132832 | 82 | 205 | 0.9 | 1.7 | 0.00 | 0.00 | 0.00 | 84 | 1016.2 |
| 20260905132329 | 82 | 222 | 0.9 | 0.9 | 0.00 | 0.00 | 0.00 | 84 | 1015.8 |
| 20260905131823 | 82 | 202 | 0.9 | 1.7 | 0.00 | 0.00 | 0.00 | 84 | 1015.9 |
| 20260905131318 | 81 | 215 | 1.7 | 2.6 | 0.00 | 0.00 | 0.00 | 84 | 1016.0 |
| 20260905130813 | 81 | 206 | 0.0 | 0.9 | 0.00 | 0.00 | 0.00 | 86 | 1015.7 |
| 20260905130312 | 81 | 223 | 0.0 | 1.7 | 0.00 | 0.00 | 0.00 | 86 | 1015.6 |
| 20260905125808 | 80 | 217 | 0.0 | 1.7 | 0.00 | 0.00 | 0.00 | 87 | 1015.7 |
| 20260905125305 | 80 | 199 | 0.0 | 0.9 | 0.00 | 0.00 | 0.00 | 86 | 1015.7 |
| 20260905124759 | 80 | 221 | 0.9 | 1.7 | 0.00 | 0.00 | 0.00 | 86 | 1015.6 |
| 20260905124255 | 80 | 255 | 0.9 | 1.7 | 0.00 | 0.00 | 0.00 | 86 | 1015.7 |
| 20260905123750 | 80 | 211 | 1.7 | 1.7 | 0.00 | 0.00 | 0.00 | 86 | 1015.7 |
| 20260905123247 | 80 | 208 | 0.9 | 1.7 | 0.00 | 0.00 | 0.00 | 87 | 1015.5 |